Regional Weather Roundup
Issued by NWS Charleston, SC

Home | Current Version | Previous Version | Text Only | Print | Product List | Glossary On
Versions: 1 2 3 4 5 6 7 8 9 10 11 12 13 14 15 16 17 18 19 20 21 22 23 24 25 26 27 28 29 30 31 32 33 34 35 36 37 38 39 40 41 42 43 44 45 46 47 48 49 50
000
ASUS42 KCHS 310328
RWRCHS

REGIONAL WEATHER ROUNDUP
NATIONAL WEATHER SERVICE CHARLESTON SC
1100 PM EDT SAT JUL 30 2016

NOTE: "FAIR" INDICATES FEW OR NO CLOUDS BELOW 12,000 FEET WITH NO
SIGNIFICANT WEATHER AND/OR OBSTRUCTIONS TO VISIBILITY.

NOT ALL STATIONS ARE QUALITY CONTROLLED. USE DATA WITH CAUTION...
ESPECIALLY DEWPOINT OBSERVATIONS.

SCZ027-030-031-034>040-042>050-310400-
...SOUTHEAST SOUTH CAROLINA...

CITY           SKY/WX    TMP DP  RH WIND       PRES   REMARKS
N CHARLESTON   CLOUDY    84  75  74 S8        30.02S HX  92
WATERFRONT PRK   N/A     86  79  79 S7        30.01R HX  99
MOUNT PLEASANT FAIR      84  79  84 CALM      30.02S HX  96
JOHNS ISLAND   FAIR      86  79  79 S12       30.02F HX  99
PINOPOLIS        N/A     86  75  70 S6        29.93R HX  95
MONCKS CORNER  FAIR      81  70  69 SW5       30.01S
SUMMERVILLE    NOT AVBL
BEAUFORT MCAS  CLOUDY    82  72  71 CALM      30.03R
BEAUFORT ARPT  FAIR      82  73  74 CALM      30.02S
HILTON HEAD IS CLOUDY    86  79  79 S8G15     30.04S HX  99
WALTERBORO     CLOUDY    79  70  73 CALM      30.03R
ALLENDALE      FAIR      81  73  78 CALM      30.01R

...SOUTHERN MIDLANDS AND PEE DEE...

CITY           SKY/WX    TMP DP  RH WIND       PRES   REMARKS
GEORGETOWN     FAIR      81  77  89 SW5       30.03S
KINGSTREE      FAIR      77  73  88 CALM      30.00S
ORANGEBURG     PTCLDY    82  73  74 SW6       30.02R
BARNWELL       NOT AVBL
AIKEN          FAIR      77  68  73 S5        30.05R
MANNING        FAIR      84  73  70 S6        30.00S HX  91
COLUMBIA       PTCLDY    85  70  60 CALM      29.99R
SUMTER         MOCLDY    82  73  74 S6        29.98R
FLORENCE       MOCLDY    77  74  90 S3        30.01R
MYRTLE BEACH   MOCLDY    84  68  58 S7        30.04R
N MYRTLE BEACH MOCLDY    84  73  69 CALM      30.01  HX  90

$$

GAZ063-065-086>088-099>101-113>116-118-119-134>141-150-310400-
...SOUTHEAST GEORGIA...

CITY           SKY/WX    TMP DP  RH WIND       PRES   REMARKS
SAVANNAH ARPT  CLOUDY    85  74  69 S9        30.03R HX  92
HUNTER AAF     CLOUDY    85  79  83 S6        30.00S HX  97
FORT STEWART   MOCLDY    84  74  71 VRB1      30.01R HX  91
STATESBORO     MOCLDY    79  77  95 CALM      30.02R
SYLVANIA       NOT AVBL
CLAXTON        FAIR      83  75  76 SE3       30.01S HX  91

...CSRA...CENTRAL AND FAR SOUTHEAST GEORGIA...

CITY           SKY/WX    TMP DP  RH WIND       PRES   REMARKS
THOMSON        NOT AVBL
AUGUSTA-BUSH   MOCLDY    75  73  93 CALM      30.00R
AUGUSTA-DANIEL CLOUDY    76  72  87 CALM      30.02R
SWAINSBORO     FAIR      81  72  74 CALM      30.02F
VIDALIA        CLOUDY    82  72  69 CALM      30.02S
EASTMAN        FAIR      83  66  54 W3        30.05S
HAZLEHURST     FAIR      85  76  72 CALM      30.02S HX  95
ALMA           CLEAR     83  73  72 SE3       30.02R
WAYCROSS       PTCLDY    85  77  77 SW10      30.04R HX  96
JESUP          FAIR      84  77  79 SW3       30.04R HX  94
BAXLEY         FAIR      86  77  74 S3        30.02S HX  97
BRUNSWICK      CLEAR     86  77  74 S8        30.05F HX  97
SAINT SIMONS   CLEAR     85  77  77 S7        30.05R HX  95

$$

SCZ027-028-034-036>038-045-046-048>050-GAZ119-141-310400-
...LAKE AND SUPPLEMENTAL COASTAL OBSERVATIONS...

STATION/POSITION TIME  TEMP    WIND        PRES    WAVE   SWELL
                       AIR SEA DIR/SP/G            HT/PER HT/PER/DIR
                 (UTC) (F)     (DEG/KT/KT) (MB)    (FT/S) (FT/S/D)
WINYAH BAY       0245   84     210/  8     1016.0R
LAKE MURRAY      0200   81     290/  3/  4 1014.9R
ACE BASIN NERRS  0200   82        CALM     1017.0R
FORT PULASKI     0300      88                N/A
SAPELO ISLAND    0300   85     180/ 12     1017.0S

$$

ANZ835-935-AMZ111-154-330-350-352-354-370-450-454-472-310400-
...C-MAN AND BUOY OBSERVATIONS...

STATION/POSITION TIME  TEMP    WIND        PRES    WAVE   SWELL
                       AIR SEA DIR/SP/G            HT/PER HT/PER/DIR
                 (UTC) (F)     (DEG/KT/KT) (MB)    (FT/S) (FT/S/D)
BUOY 41004       0250   86 86  200/ 16/ 17 1016.5R   3/ 4   2/130/ 9
BUOY 41008       0250   86 87  170/ 17/ 21 1017.0R   3/ 4
FOLLY BEACH CMAN 0300   86     200/ 15/ 18 1017.0S
CAPERS NEARSHORE 0208   86 86  210/ 17/ 21 1016.6R
FRIPP NEARSHORE  0308   86 87  210/ 14/ 19 1016.3R


STATION/POSITION TIME  TEMP    WIND        PRES    WAVE   SWELL
                       AIR SEA DIR/SP/G            HT/PER HT/PER/DIR
                 (UTC) (F)     (DEG/KT/KT) (MB)    (FT/S) (FT/S/D)
5E ST. MARYS GA  0301      86                N/A     3/ 4
FRYING PAN BUOY  0300   85 85  210/ 16/ 19 1017.0R
BUOY 41025       0250   85 84  200/ 21/ 23 1015.5R   4/ 4   2/ 20/ 7
CAPE LOOKOUT NC  0300   84     210/ 10/ 12 1016.3R
BUOY 41002       0250   85 85  180/ 14/ 16 1019.1R   2/ 5   2/350/ 9
BUOY 41010       0220   85 87  140/ 10/ 12 1018.8R
ST AUGUSTINE FL  0300   83 86  190/  8/  9 1019.3R


$$



USA.gov is the U.S. government's official web portal to all federal, state and local government web resources and services.